Location: Grange Verzio
(44.5000°N, 6.9833°E)
Time: 12:51:51
(UTC+00:00)

Cosmos 2058 Rocket - Pass Details

Date: 01 February 2023
Orbit: 610 x 637 km, 82.5° (Epoch: 25 March)

Event Time Altitude Azimuth Distance (km) Brightness Sun altitude
Rises 19:01:19 0° 347° (NNW) 2,895 6.7 -25.2°
Reaches altitude 10° 19:03:33 10° 344° (NNW) 1,988 5.8 -25.6°
Maximum altitude 19:07:53 59° 266° (W) 718 3.5 -26.4°
Enters shadow 19:09:41 33° 200° (SSW) 1,053 4.3 -26.7°
